FW1589 Weather Reports


Display with metric or nautical units.
time (UTC)temp
F
wind
direction
speed
MPH
gust
MPH
rain 1hr
in
rain 24hr
in
rain mn
in
humidity
%
barometer
mb
20260508214510 66 263 4.0 8.0 0.00 0.00 0.00 69 1000.5
20260508214009 66 224 4.0 8.0 0.00 0.00 0.00 69 1000.5
20260508213507 66 191 4.0 9.0 0.00 0.00 0.00 70 1000.5
20260508213007 65 251 4.0 9.0 0.00 0.00 0.00 71 1000.5
20260508212005 65 207 4.0 10.0 0.00 0.00 0.00 71 1000.7
20260508211505 65 198 4.0 13.0 0.00 0.00 0.00 71 1000.7
20260508211005 64 254 5.0 13.0 0.00 0.00 0.00 72 1001.0
20260508210459 64 205 5.0 8.0 0.00 0.00 0.00 71 1000.9
20260508205953 64 239 5.0 10.0 0.00 0.00 0.00 71 1001.0
20260508205447 64 244 5.0 11.0 0.00 0.00 0.00 71 1001.0
20260508204942 65 159 4.0 11.0 0.00 0.00 0.00 71 1001.1
20260508204436 64 231 4.0 8.0 0.00 0.00 0.00 72 1001.0
20260508203929 64 255 4.0 10.0 0.00 0.00 0.00 72 1001.1
20260508202918 64 148 4.0 10.0 0.00 0.00 0.00 72 1001.2
20260508202411 64 246 5.0 11.0 0.00 0.00 0.00 71 1001.2
20260508201905 64 200 5.0 12.0 0.00 0.00 0.00 71 1001.1
20260508201400 65 229 5.0 12.0 0.00 0.00 0.00 70 1001.1
20260508200854 65 188 4.0 10.0 0.00 0.00 0.00 69 1001.1
20260508200348 65 166 4.0 9.0 0.00 0.00 0.00 70 1001.3
20260508195842 65 220 5.0 12.0 0.00 0.00 0.00 70 1001.3
20260508194830 64 165 4.0 9.0 0.00 0.00 0.00 70 1001.2
20260508193818 63 241 5.0 12.0 0.00 0.00 0.00 72 1001.3
20260508193312 63 187 5.0 10.0 0.00 0.00 0.00 73 1001.3
20260508192806 62 169 4.0 9.0 0.00 0.00 0.00 74 1001.3
20260508192300 62 240 4.0 10.0 0.00 0.00 0.00 74 1001.3
20260508191248 61 242 5.0 10.0 0.00 0.00 0.00 75 1001.5
20260508190742 61 205 4.0 9.0 0.00 0.00 0.00 75 1001.6
20260508190239 61 206 5.0 13.0 0.00 0.00 0.00 75 1001.6
20260508185739 60 169 6.0 13.0 0.00 0.00 0.00 75 1001.6
20260508185237 60 165 5.0 13.0 0.00 0.00 0.00 77 1001.6
20260508184737 60 181 5.0 11.0 0.00 0.00 0.00 77 1001.7
20260508184238 59 159 5.0 11.0 0.00 0.00 0.00 78 1001.7
20260508183736 60 261 5.0 10.0 0.00 0.00 0.00 77 1001.9
20260508183236 60 211 4.0 9.0 0.00 0.00 0.00 77 1001.9
20260508182735 60 263 4.0 9.0 0.00 0.00 0.00 78 1001.8
20260508182234 59 202 4.0 9.0 0.00 0.00 0.00 78 1001.8
20260508181733 59 269 4.0 9.0 0.00 0.00 0.00 78 1001.9
20260508181233 60 250 4.0 9.0 0.00 0.00 0.00 76 1001.9
20260508180733 60 184 6.0 13.0 0.00 0.00 0.00 76 1001.8
20260508180233 60 134 6.0 14.0 0.00 0.00 0.00 75 1001.7
20260508175733 60 199 6.0 14.0 0.00 0.00 0.00 75 1001.7
20260508175233 60 157 5.0 11.0 0.00 0.00 0.00 75 1001.7
20260508174734 59 245 5.0 11.0 0.00 0.00 0.00 77 1001.7
20260508174233 59 187 5.0 11.0 0.00 0.00 0.00 77 1001.7
20260508173734 58 257 5.0 11.0 0.00 0.00 0.00 77 1001.6
20260508173229 58 161 5.0 11.0 0.00 0.00 0.00 78 1001.7
20260508172729 57 221 6.0 11.0 0.00 0.00 0.00 80 1001.8
20260508172229 57 202 6.0 11.0 0.00 0.00 0.00 80 1001.9
20260508171729 57 213 5.0 11.0 0.00 0.00 0.00 80 1001.9
20260508171228 56 201 6.0 13.0 0.00 0.00 0.00 81 1001.7
20260508170229 56 187 5.0 11.0 0.00 0.00 0.00 81 1001.7
20260508165730 56 232 4.0 12.0 0.00 0.00 0.00 82 1001.7
20260508165229 55 221 5.0 12.0 0.00 0.00 0.00 82 1001.6
20260508164728 55 236 5.0 9.0 0.00 0.00 0.00 83 1001.7
20260508164228 55 163 6.0 13.0 0.00 0.00 0.00 83 1001.7
20260508163727 54 191 7.0 13.0 0.00 0.00 0.00 83 1001.6
20260508163228 54 190 7.0 13.0 0.00 0.00 0.00 83 1001.6
20260508162226 54 192 4.0 10.0 0.00 0.00 0.00 83 1001.6
20260508161727 54 223 5.0 13.0 0.00 0.00 0.00 83 1001.6
20260508161228 54 163 5.0 13.0 0.00 0.00 0.00 83 1001.6
20260508160216 54 200 4.0 9.0 0.00 0.00 0.00 84 1001.5
20260508154703 53 194 5.0 12.0 0.00 0.00 0.00 85 1001.5
20260508154151 53 167 5.0 10.0 0.00 0.00 0.00 85 1001.4
20260508153146 53 185 4.0 11.0 0.00 0.00 0.00 85 1001.4
20260508152643 53 196 4.0 10.0 0.00 0.00 0.00 86 1001.4
20260508152142 53 166 4.0 10.0 0.00 0.00 0.00 86 1001.4
20260508151142 52 161 4.0 9.0 0.00 0.00 0.00 86 1001.3
20260508150643 52 178 4.0 9.0 0.00 0.00 0.00 86 1001.3
20260508150140 52 162 4.0 12.0 0.00 0.00 0.00 86 1001.3
20260508145640 52 208 4.0 12.0 0.00 0.00 0.00 86 1001.4
20260508145142 52 209 4.0 11.0 0.00 0.00 0.00 86 1001.3
20260508144640 52 163 5.0 12.0 0.00 0.00 0.00 86 1001.3
20260508143644 52 187 6.0 14.0 0.00 0.00 0.00 86 1001.3
20260508143136 52 169 5.0 14.0 0.00 0.00 0.00 86 1001.3
20260508142138 52 182 6.0 12.0 0.00 0.00 0.00 86 1001.0
20260508141137 52 186 6.0 11.0 0.00 0.00 0.00 87 1001.0
20260508140638 52 192 5.0 11.0 0.00 0.00 0.00 86 1001.0
20260508140138 52 174 5.0 10.0 0.00 0.00 0.00 86 1001.0
20260508135637 52 195 6.0 12.0 0.00 0.00 0.00 86 1001.0
20260508135142 52 198 5.0 12.0 0.00 0.00 0.00 87 1000.9
20260508134634 52 188 5.0 10.0 0.00 0.00 0.00 87 1001.0
20260508134132 52 167 5.0 12.0 0.00 0.00 0.00 87 1000.9
20260508133635 52 173 5.0 12.0 0.00 0.00 0.00 87 1000.7
20260508132134 52 157 6.0 11.0 0.00 0.00 0.00 87 1000.5
20260508131634 52 203 5.0 11.0 0.00 0.00 0.00 87 1000.6
20260508131133 51 155 5.0 11.0 0.00 0.00 0.00 87 1000.6
20260508130636 52 161 5.0 10.0 0.00 0.00 0.00 87 1000.6
20260508130134 52 183 5.0 12.0 0.00 0.00 0.00 87 1000.6
20260508124633 52 170 5.0 10.0 0.00 0.00 0.00 87 1000.7
20260508124132 52 165 5.0 12.0 0.00 0.00 0.00 88 1000.5
20260508122134 52 142 4.0 9.0 0.00 0.00 0.00 88 1000.5
20260508121627 52 192 3.0 8.0 0.00 0.00 0.00 88 1000.6
20260508121121 52 200 3.0 11.0 0.00 0.00 0.00 88 1000.5
20260508120622 52 153 3.0 11.0 0.00 0.00 0.00 88 1000.5
20260508120119 52 197 4.0 8.0 0.00 0.00 0.00 88 1000.5
20260508115619 52 180 4.0 10.0 0.00 0.00 0.00 88 1000.7
20260508115118 52 173 4.0 10.0 0.00 0.00 0.00 88 1000.6
20260508114619 52 171 5.0 9.0 0.00 0.00 0.00 88 1000.5
20260508114119 52 196 5.0 9.0 0.00 0.00 0.00 88 1000.6
20260508113619 52 196 6.0 11.0 0.00 0.00 0.00 88 1000.8
20260508113119 52 190 6.0 11.0 0.00 0.00 0.00 88 1000.8
20260508112619 52 173 6.0 11.0 0.00 0.00 0.00 88 1000.8
20260508112119 52 156 6.0 12.0 0.00 0.00 0.00 88 1000.7
20260508111618 52 204 6.0 12.0 0.00 0.00 0.00 89 1000.8
20260508111118 52 186 5.0 11.0 0.00 0.00 0.00 89 1000.7
20260508110119 52 205 7.0 15.0 0.00 0.00 0.00 89 1000.5
20260508105612 52 190 6.0 15.0 0.00 0.00 0.00 89 1000.5
20260508104609 52 139 6.0 12.0 0.00 0.00 0.00 89 1000.6
20260508104108 52 174 6.0 12.0 0.00 0.00 0.00 89 1000.6
20260508103609 52 199 6.0 11.0 0.00 0.00 0.00 89 1000.6
20260508103108 52 165 6.0 13.0 0.00 0.00 0.00 88 1000.6
20260508102609 52 180 6.0 13.0 0.00 0.00 0.00 88 1000.7
20260508102108 52 194 4.0 11.0 0.00 0.00 0.00 88 1000.6
20260508101608 52 203 5.0 12.0 0.00 0.00 0.00 88 1000.6
20260508101110 52 205 5.0 12.0 0.00 0.00 0.00 88 1000.6
20260508095608 52 167 5.0 9.0 0.00 0.00 0.00 88 1000.7
20260508095109 52 198 4.0 10.0 0.00 0.00 0.00 88 1000.8
20260508094609 52 200 4.0 11.0 0.00 0.00 0.00 87 1000.7
20260508093557 52 167 5.0 11.0 0.00 0.00 0.00 87 1000.7
20260508093050 52 181 6.0 12.0 0.00 0.00 0.00 87 1000.7
20260508092545 52 171 6.0 12.0 0.00 0.00 0.00 87 1000.8
20260508092039 52 194 5.0 12.0 0.00 0.00 0.00 87 1000.7
20260508091532 52 197 6.0 16.0 0.00 0.00 0.00 87 1000.8
20260508091026 52 130 6.0 16.0 0.00 0.00 0.00 87 1000.6
20260508090521 52 173 5.0 10.0 0.00 0.00 0.00 87 1000.6
20260508090015 52 151 4.0 10.0 0.00 0.00 0.00 87 1000.6
20260508085509 52 190 4.0 10.0 0.00 0.00 0.00 87 1000.6
20260508085003 52 184 5.0 13.0 0.00 0.00 0.00 87 1000.6
20260508084457 52 152 5.0 16.0 0.00 0.00 0.00 87 1000.6
20260508083951 53 176 5.0 16.0 0.00 0.00 0.00 87 1000.6
20260508083445 53 152 5.0 12.0 0.00 0.00 0.00 87 1000.5
20260508082939 53 173 4.0 12.0 0.00 0.00 0.00 87 1000.6
20260508082433 53 184 4.0 10.0 0.00 0.00 0.00 87 1000.7
20260508081927 53 180 3.0 10.0 0.00 0.00 0.00 87 1000.6
20260508075357 53 149 5.0 9.0 0.00 0.00 0.00 88 1000.6
20260508074851 53 179 5.0 9.0 0.00 0.00 0.00 88 1000.7
20260508074345 53 179 4.0 10.0 0.00 0.00 0.00 88 1000.8
20260508073839 53 179 4.0 10.0 0.00 0.00 0.00 88 1000.8
20260508072827 53 178 4.0 9.0 0.00 0.00 0.00 88 1000.7
20260508072320 53 172 5.0 10.0 0.00 0.00 0.00 88 1000.6
20260508071818 53 144 5.0 10.0 0.00 0.00 0.00 89 1000.6
20260508071318 53 139 3.0 8.0 0.00 0.00 0.00 88 1000.5
20260508070319 53 167 4.0 8.0 0.00 0.00 0.00 89 1000.5
20260508065817 53 153 4.0 8.0 0.00 0.00 0.00 89 1000.6
20260508064817 53 144 5.0 10.0 0.00 0.00 0.00 89 1000.6
20260508063814 53 155 4.0 10.0 0.00 0.00 0.00 89 1000.5
20260508063315 53 157 5.0 10.0 0.00 0.00 0.00 89 1000.5
20260508062814 53 169 5.0 12.0 0.00 0.00 0.00 89 1000.5
20260508062312 53 168 4.0 12.0 0.00 0.00 0.00 89 1000.6
20260508061813 53 194 4.0 11.0 0.00 0.00 0.00 89 1000.6
20260508061311 53 199 5.0 11.0 0.00 0.00 0.00 89 1000.6
20260508060811 53 217 7.0 15.0 0.00 0.00 0.00 89 1000.6
20260508060310 53 173 6.0 15.0 0.00 0.00 0.00 89 1000.6
20260508055809 53 169 5.0 11.0 0.00 0.00 0.00 90 1000.6
20260508054805 53 173 5.0 11.0 0.00 0.00 0.00 90 1000.6
20260508054259 53 207 5.0 11.0 0.00 0.00 0.00 90 1000.4
20260508053752 53 181 4.0 10.0 0.00 0.00 0.00 90 1000.4
20260508053246 53 146 5.0 12.0 0.00 0.00 0.00 90 1000.4
20260508052741 53 154 6.0 12.0 0.00 0.00 0.00 90 1000.5
20260508052236 53 153 5.0 10.0 0.00 0.00 0.00 90 1000.5
20260508051729 53 200 5.0 10.0 0.00 0.00 0.00 90 1000.6
20260508051222 53 164 4.0 10.0 0.00 0.00 0.00 90 1000.4
20260508050717 53 207 4.0 10.0 0.00 0.00 0.00 90 1000.5
20260508050211 53 195 6.0 10.0 0.00 0.00 0.00 90 1000.5
20260508044653 53 176 4.0 10.0 0.00 0.00 0.00 90 1000.4
20260508044147 53 198 5.0 10.0 0.00 0.00 0.00 90 1000.6
20260508043146 53 180 6.0 13.0 0.00 0.00 0.00 90 1000.3
20260508041647 54 153 6.0 11.0 0.00 0.00 0.00 90 1000.2
20260508041147 54 160 6.0 13.0 0.00 0.00 0.00 89 1000.3
20260508040645 54 199 7.0 13.0 0.00 0.00 0.00 89 1000.2
20260508040146 54 187 6.0 15.0 0.00 0.00 0.00 89 1000.1
20260508035646 54 183 7.0 15.0 0.00 0.00 0.00 89 1000.1
20260508035146 54 152 6.0 14.0 0.00 0.00 0.00 89 1000.1
20260508034646 54 159 5.0 10.0 0.00 0.00 0.00 89 1000.0
20260508034146 54 179 5.0 11.0 0.00 0.00 0.00 88 999.9
20260508033647 54 172 5.0 13.0 0.00 0.00 0.00 88 999.8
20260508033142 54 227 5.0 13.0 0.00 0.00 0.00 88 999.9
20260508032641 54 156 4.0 12.0 0.00 0.00 0.00 88 999.9
20260508031643 54 221 5.0 12.0 0.00 0.00 0.00 87 999.6
20260508031143 55 199 5.0 12.0 0.00 0.00 0.00 87 999.7
20260508030642 55 165 5.0 12.0 0.00 0.00 0.00 87 999.7
20260508030143 55 184 6.0 12.0 0.00 0.00 0.00 87 999.6
20260508025641 55 175 5.0 13.0 0.00 0.00 0.00 86 999.6
20260508025143 55 186 4.0 13.0 0.00 0.00 0.00 86 999.7
20260508024142 56 219 5.0 12.0 0.00 0.00 0.00 85 999.7
20260508023642 56 173 6.0 11.0 0.00 0.00 0.00 85 999.6
20260508023142 56 222 6.0 12.0 0.00 0.00 0.00 84 999.5
20260508022642 56 151 6.0 12.0 0.00 0.00 0.00 84 999.4
20260508022143 57 165 6.0 12.0 0.00 0.00 0.00 83 999.3
20260508021642 57 154 6.0 12.0 0.00 0.00 0.00 83 999.4
20260508021141 57 177 6.0 15.0 0.00 0.00 0.00 82 999.4
20260508020143 58 154 6.0 12.0 0.00 0.00 0.00 82 999.4
20260508015641 58 192 6.0 12.0 0.00 0.00 0.00 82 999.4
20260508015141 58 157 7.0 12.0 0.00 0.00 0.00 81 999.5
20260508014641 58 134 7.0 12.0 0.00 0.00 0.00 80 999.6
20260508014141 59 187 7.0 14.0 0.00 0.00 0.00 80 999.5
20260508013642 59 180 6.0 14.0 0.00 0.00 0.00 80 999.6
20260508013141 59 195 6.0 13.0 0.00 0.00 0.00 80 999.4
20260508012143 60 204 6.0 14.0 0.00 0.00 0.00 79 999.5
20260508010624 60 165 7.0 14.0 0.00 0.00 0.00 78 999.5
20260508010118 61 173 6.0 14.0 0.00 0.00 0.00 77 999.5
20260508005611 61 183 6.0 11.0 0.00 0.00 0.00 76 999.6
20260508005106 62 161 5.0 11.0 0.00 0.00 0.00 75 999.7
20260508004054 62 184 5.0 11.0 0.00 0.00 0.00 75 999.8
20260508003548 62 198 4.0 14.0 0.00 0.00 0.00 75 999.7
20260508003044 63 184 5.0 14.0 0.00 0.00 0.00 75 999.9
20260508002044 62 205 6.0 13.0 0.00 0.00 0.00 75 999.9
20260508001542 62 260 5.0 13.0 0.00 0.00 0.00 75 1000.0
20260508001043 62 183 5.0 14.0 0.00 0.00 0.00 75 999.9
20260508000538 62 241 6.0 14.0 0.00 0.00 0.00 75 999.9
20260508000039 62 142 6.0 12.0 0.00 0.00 0.00 74 999.9
20260507235538 63 165 6.0 12.0 0.00 0.00 0.00 74 999.8
20260507234539 63 186 5.0 12.0 0.00 0.00 0.00 72 999.8
20260507234037 64 173 5.0 11.0 0.00 0.00 0.00 73 999.9
20260507233537 64 164 6.0 13.0 0.00 0.00 0.00 73 999.9
20260507233037 64 200 5.0 13.0 0.00 0.00 0.00 71 1000.0
20260507232037 65 231 4.0 9.0 0.00 0.00 0.00 71 1000.0
20260507231531 65 178 4.0 8.0 0.00 0.00 0.00 72 1000.0
20260507231024 64 259 4.0 8.0 0.00 0.00 0.00 72 1000.1
20260507230518 64 227 4.0 8.0 0.00 0.00 0.00 73 1000.1
20260507230019 64 189 4.0 7.0 0.00 0.00 0.00 73 1000.1
20260507225506 64 250 4.0 9.0 0.00 0.00 0.00 72 1000.1
20260507225001 64 223 3.0 9.0 0.00 0.00 0.00 72 1000.0
20260507224454 65 219 3.0 9.0 0.00 0.00 0.00 72 1000.1
20260507223947 65 237 4.0 9.0 0.00 0.00 0.00 71 1000.1
20260507222936 65 211 4.0 9.0 0.00 0.00 0.00 72 1000.0
20260507222429 65 225 3.0 8.0 0.00 0.00 0.00 72 1000.1
20260507221924 65 247 4.0 9.0 0.00 0.00 0.00 72 1000.2
20260507221418 65 241 4.0 9.0 0.00 0.00 0.00 72 1000.2
20260507220406 65 177 4.0 8.0 0.00 0.00 0.00 72 1000.3
20260507215900 65 244 4.0 8.0 0.00 0.00 0.00 71 1000.5
20260507215354 65 222 4.0 8.0 0.00 0.00 0.00 71 1000.6
20260507214848 65 217 4.0 8.0 0.00 0.00 0.00 71 1000.6